Location: Gwatt
(46.7204°N, 7.6223°E)
Time: 16:53:33
(UTC+00:00)

Lacrosse 5 rocket - Pass Details

Date: 18 September 2020
Orbit: 460 x 636 km, 57.0° (Epoch: 29 October)

Event Time Altitude Azimuth Distance (km) Brightness Sun altitude
Rises 18:06:24 0° 254° (WSW) 2,711 6.2 -6.3°
Reaches altitude 10° 18:08:40 10° 261° (W) 1,851 5.5 -6.6°
Maximum altitude 18:12:40 41° 333° (NNW) 856 2.7 -7.3°
Drops below altitude 10° 18:16:54 10° 44° (NE) 1,957 3.8 -8.0°
Sets 18:19:21 0° 52° (NE) 2,887 4.6 -8.5°
